Wind_Speed
12 7 4 7 11 15 20 24 27 30 33 37 38 40 41 45 48 50 50 55 57 58 57 58 54 51 50 51 54 56 61 68 71 76 79 85 89 91 91 85 80 81 80
15 11 7 8 11 14 19 23 26 29 32 36 39 41 43 46 49 51 49 50 56 58 61 61 62 58 53 53 55 58 59 66 72 77 80 84 89 93 94 89 84 80 79
18 14 11 12 13 14 18 22 25 29 31 35 38 42 45 47 49 52 53 51 53 58 61 62 62 64 61 57 57 60 61 66 70 76 82 87 91 94 96 96 84 80 76
22 18 15 14 15 15 18 22 25 28 31 34 38 41 45 47 50 53 56 55 55 56 61 64 64 65 65 62 60 63 62 66 71 77 83 87 91 93 95 96 95 85 80
25 21 19 17 17 18 20 23 25 29 31 34 37 40 43 46 48 50 55 58 57 57 61 65 66 67 66 67 63 65 65 66 73 81 86 90 92 94 99 99 96 89 80
30 25 22 20 19 21 23 25 27 30 32 36 39 42 44 47 50 51 53 57 59 57 62 65 69 70 65 72 69 69 69 69 73 81 87 91 95 96 96 98 97 90 81
33 30 25 23 23 24 25 28 29 31 35 39 41 44 45 47 49 51 53 55 60 59 62 66 70 71 67 68 71 70 73 70 74 82 88 92 94 98 99 101 100 98 83
37 33 29 26 27 27 28 31 32 33 33 39 42 45 47 46 50 53 54 56 60 61 60 66 70 72 69 68 72 72 73 73 72 82 90 92 96 99 99 102 104 99 89
39 35 32 29 31 30 31 33 34 36 37 42 44 46 49 48 50 53 55 57 58 64 60 66 70 75 68 68 76 73 75 74 74 82 88 92 96 99 102 104 111 100 83
42 37 35 35 34 33 35 38 37 39 40 46 47 48 50 50 52 55 55 59 59 62 58 65 72 76 70 70 76 76 76 75 74 82 91 95 99 103 104 109 109 105 81
44 42 39 38 38 38 40 41 41 42 44 49 49 49 50 50 50 54 56 60 62 67 63 66 72 77 73 71 77 77 75 73 75 83 92 100 104 103 104 107 107 107 85
46 45 43 43 43 44 44 43 43 44 46 51 47 49 50 53 51 54 58 61 64 68 65 70 73 76 74 71 76 76 77 75 79 87 94 101 102 102 107 107 116 108 93
49 48 47 46 47 47 46 45 46 45 47 47 45 48 49 54 53 54 57 60 64 67 63 70 73 77 75 71 77 76 79 77 81 87 95 100 101 106 109 109 115 111 91
48 51 51 50 50 50 49 47 45 45 48 47 47 47 50 51 54 55 54 58 63 69 62 70 72 72 75 71 78 79 82 82 83 89 98 101 102 110 111 107 115 108 93
51 54 53 52 53 53 50 47 47 46 49 48 48 49 52 51 54 57 58 62 64 69 66 70 72 72 75 72 74 81 84 84 84 90 100 102 101 108 115 110 113 109 100
55 53 54 54 55 54 50 48 47 48 51 51 50 51 52 55 55 56 59 60 64 70 68 70 69 70 74 75 74 78 83 85 85 92 101 101 100 106 111 114 121 107 117
58 56 55 55 55 52 48 49 49 51 53 54 53 55 58 55 59 59 62 58 64 70 71 71 68 69 74 76 74 80 86 83 84 96 103 104 102 105 110 111 117 120 120
61 59 57 56 54 52 52 54 55 56 56 57 59 58 60 56 59 63 65 65 68 73 71 66 66 69 72 79 76 79 85 85 91 96 104 104 105 105 105 112 119 126 127
65 64 62 60 58 57 60 61 60 61 62 62 62 61 62 58 59 63 66 69 70 72 63 61 62 66 71 82 79 82 86 89 96 97 104 103 106 110 104 111 114 120 128
70 69 68 65 60 58 63 64 64 64 65 64 61 63 61 57 61 69 65 69 69 62 56 60 63 66 72 80 82 88 93 92 97 98 105 101 107 109 107 109 112 123 128
74 73 71 69 63 61 63 63 65 67 65 63 61 63 60 57 58 60 61 60 58 55 56 61 60 68 74 79 85 88 93 91 98 100 103 104 107 111 110 116 111 117 127
76 75 73 71 66 66 67 64 62 63 63 60 59 60 60 57 54 54 54 57 60 59 58 62 66 73 75 76 86 93 98 97 98 103 103 104 106 111 110 117 110 118 121
76 75 72 69 67 67 68 67 66 64 64 60 59 59 56 54 49 54 54 55 58 57 61 60 67 74 74 79 88 96 100 99 98 105 105 107 110 112 118 111 114 119 122
67 68 69 70 70 67 67 69 64 62 60 58 58 56 47 43 50 50 53 55 57 62 63 67 68 70 77 82 87 100 103 100 97 103 104 105 109 111 121 117 113 117 124
71 71 70 69 67 67 67 64 59 57 53 53 53 49 46 50 51 53 55 56 63 68 70 71 70 72 81 83 94 100 106 105 99 102 103 107 108 113 117 122 120 119 120
71 72 70 69 66 64 62 60 56 53 46 45 46 51 52 52 56 58 61 63 67 70 73 73 73 77 81 90 100 103 107 100 99 105 101 105 108 110 114 124 120 118 115
Wind_Direction
222 243 283 328 343 352 356 3 7 7 10 10 6 6 8 9 10 11 9 11 12 12 10 6 2 356 356 354 353 354 356 357 0 2 3 3 3 4 4 4 5 359 4
221 242 270 300 322 341 346 350 357 0 5 5 5 1 4 6 6 6 5 6 5 8 8 4 2 359 354 354 351 351 354 355 359 360 2 2 2 2 3 5 4 359 2
227 241 262 286 306 327 332 340 346 351 357 0 1 356 0 1 1 1 4 1 1 3 5 5 1 358 356 354 351 348 351 354 357 359 1 1 2 0 2 2 4 1 0
230 242 254 274 292 309 321 327 336 344 349 353 355 354 356 356 356 356 357 359 358 358 1 2 360 357 356 354 351 349 349 353 356 359 0 359 359 360 1 1 1 5 360
232 242 255 268 285 299 310 320 330 337 343 345 348 349 352 351 351 353 352 355 355 355 357 359 359 357 356 355 352 348 348 351 354 356 358 357 357 360 357 359 360 1 1
237 242 252 267 280 293 304 313 326 332 334 337 340 346 345 347 347 350 349 351 353 351 354 355 357 355 352 356 354 352 348 348 351 355 356 356 355 356 357 357 358 358 360
237 244 250 263 276 286 299 309 321 327 330 331 335 339 341 342 343 343 346 348 351 351 353 353 354 356 352 354 353 350 350 349 349 352 354 353 354 354 354 355 355 356 359
238 246 253 262 273 284 297 304 312 318 322 322 326 333 335 337 338 340 342 346 349 349 352 352 352 351 349 350 352 352 349 348 346 348 351 351 352 353 351 353 353 353 356
240 246 254 264 272 283 292 298 305 310 315 316 321 328 329 333 336 335 338 342 349 348 347 350 349 350 349 350 354 353 349 347 349 348 348 349 349 350 350 353 355 353 352
245 250 257 263 272 281 288 293 300 305 312 312 321 325 327 328 333 332 336 341 346 346 344 348 347 347 348 349 354 351 349 349 348 345 347 348 349 349 350 350 352 352 350
249 254 261 269 275 281 285 292 299 303 309 311 319 320 321 324 328 330 334 340 344 344 342 346 345 346 347 347 352 354 349 347 346 345 347 349 350 351 349 349 350 351 349
255 259 264 269 275 280 286 292 298 303 306 309 316 316 317 321 325 331 335 340 342 341 341 342 344 345 344 346 351 351 349 346 344 345 347 349 350 351 349 350 352 352 350
257 261 264 268 273 277 283 291 296 301 304 309 312 311 314 317 325 331 336 338 338 339 338 340 341 343 343 343 348 349 351 345 344 345 348 350 351 351 350 350 351 351 349
255 260 262 266 271 276 281 287 292 298 302 307 310 308 310 316 322 328 332 332 337 338 334 335 337 341 340 339 344 346 347 345 344 345 348 348 349 352 352 352 352 350 351
257 261 263 263 267 272 278 285 291 296 299 305 306 307 310 315 319 325 329 334 333 333 333 331 335 340 340 337 340 344 346 346 344 346 349 350 348 350 351 353 354 357 355
257 258 259 262 266 272 280 286 290 295 298 304 306 307 308 314 318 322 326 328 330 333 331 331 335 338 338 340 339 344 346 345 342 346 348 350 349 349 350 355 357 354 359
256 258 262 265 270 276 281 285 289 294 297 301 304 306 308 316 316 321 320 324 332 331 328 329 332 333 340 338 338 340 343 342 343 347 348 348 347 348 351 353 354 356 357
255 259 264 268 272 277 282 286 288 290 293 298 302 306 306 312 314 316 322 328 327 326 324 328 330 330 335 343 338 337 340 342 341 345 346 347 348 350 351 352 354 353 357
252 257 262 267 273 278 282 286 289 291 294 297 301 304 303 310 312 315 319 323 321 321 323 324 328 330 336 343 339 336 335 340 340 342 343 344 348 348 350 353 352 351 354
254 258 262 265 271 278 281 284 288 290 293 298 300 299 302 309 311 309 317 317 319 322 314 319 324 325 332 338 339 337 337 339 340 341 342 343 346 348 352 352 349 349 351
258 261 265 268 272 274 277 282 286 289 294 296 298 297 300 304 307 310 319 319 314 310 309 314 323 323 327 332 334 336 336 335 338 338 342 343 345 347 349 349 351 348 349
258 261 265 269 274 277 279 281 284 288 291 294 295 294 297 301 308 312 316 313 311 311 308 309 317 318 325 329 332 333 335 333 336 338 341 342 343 345 352 351 350 346 349
255 260 263 267 270 274 280 284 287 289 290 293 294 293 297 304 312 316 307 309 306 306 309 306 314 318 322 324 329 330 333 332 334 337 339 340 342 347 350 351 351 347 348
256 258 261 265 269 272 274 276 281 283 287 290 290 294 303 302 299 300 301 307 301 303 304 306 313 317 319 321 325 328 331 332 333 336 337 338 342 345 348 348 348 346 346
255 257 260 263 264 268 273 277 280 281 282 285 295 301 299 298 294 292 295 299 301 304 304 307 315 315 311 319 322 325 328 330 332 335 336 339 341 341 345 344 345 344 344
256 258 260 264 267 269 270 272 272 272 277 284 292 293 291 289 292 291 292 294 299 301 304 310 311 311 312 317 322 323 326 329 332 333 336 339 338 339 339 343 343 344 346
Height
11013 11014 11014 11014 11014 11011 11009 11006 11004 11001 10995 10990 10985 10981 10975 10969 10961 10953 10946 10938 10931 10923 10914 10905 10897 10887 10877 10867 10857 10848 10837 10824 10811 10798 10781 10766 10749 10731 10715 10697 10677 10662 10644
11011 11012 11012 11012 11012 11010 11007 11005 11003 10999 10994 10989 10985 10980 10974 10967 10960 10953 10946 10938 10930 10920 10910 10901 10893 10883 10872 10862 10852 10843 10834 10820 10805 10790 10776 10761 10745 10729 10711 10693 10676 10660 10645
11008 11009 11010 11010 11009 11007 11005 11004 11000 10998 10994 10988 10984 10979 10972 10965 10959 10952 10945 10937 10929 10919 10909 10900 10891 10882 10870 10859 10848 10837 10828 10817 10802 10787 10772 10757 10742 10723 10706 10692 10675 10657 10642
11004 11006 11007 11007 11006 11004 11002 11001 10998 10995 10991 10986 10982 10977 10970 10963 10956 10949 10942 10934 10925 10917 10907 10898 10887 10878 10867 10854 10842 10832 10822 10810 10797 10784 10767 10752 10738 10722 10705 10685 10668 10653 10633
11000 11002 11003 11004 11003 11001 10998 10997 10995 10991 10987 10984 10980 10975 10968 10962 10955 10948 10940 10931 10922 10913 10903 10894 10884 10874 10863 10851 10839 10828 10816 10804 10792 10777 10762 10748 10731 10717 10699 10683 10666 10647 10635
10995 10997 10998 10999 10998 10996 10994 10992 10991 10987 10984 10980 10976 10970 10964 10958 10952 10945 10938 10929 10919 10909 10899 10888 10878 10869 10859 10845 10833 10822 10809 10798 10785 10771 10757 10743 10728 10712 10698 10679 10660 10645 10625
10989 10991 10993 10994 10993 10991 10989 10987 10986 10983 10978 10974 10970 10967 10961 10954 10948 10941 10935 10926 10916 10906 10895 10883 10872 10863 10852 10841 10828 10818 10805 10792 10780 10766 10752 10737 10722 10703 10686 10671 10657 10643 10625
10983 10986 10988 10988 10987 10986 10985 10983 10981 10978 10975 10971 10966 10963 10957 10950 10943 10937 10930 10922 10911 10901 10892 10882 10871 10860 10848 10838 10826 10812 10798 10786 10774 10762 10747 10730 10716 10700 10684 10668 10645 10624 10611
10976 10979 10982 10983 10982 10981 10980 10978 10976 10973 10969 10965 10961 10957 10951 10946 10939 10932 10925 10917 10907 10896 10887 10877 10867 10856 10843 10831 10818 10804 10791 10780 10769 10757 10743 10728 10710 10695 10677 10657 10636 10617 10598
10970 10974 10976 10975 10976 10976 10975 10973 10970 10967 10963 10957 10954 10950 10944 10939 10932 10926 10918 10908 10899 10892 10883 10873 10861 10849 10837 10825 10813 10799 10786 10774 10762 10749 10735 10720 10705 10686 10667 10651 10633 10614 10597
10964 10967 10969 10970 10970 10969 10968 10967 10965 10962 10957 10951 10948 10944 10938 10932 10926 10919 10912 10901 10891 10881 10873 10865 10854 10843 10832 10820 10809 10795 10782 10770 10757 10742 10727 10711 10693 10675 10659 10640 10622 10605 10589
10958 10961 10962 10962 10962 10961 10960 10959 10958 10955 10950 10946 10943 10937 10929 10924 10920 10913 10904 10894 10885 10876 10864 10854 10846 10836 10825 10814 10804 10791 10778 10764 10751 10737 10721 10704 10685 10667 10647 10627 10608 10589 10574
10950 10951 10953 10954 10954 10953 10952 10952 10950 10946 10943 10940 10937 10929 10922 10916 10912 10905 10896 10887 10880 10869 10860 10852 10841 10831 10821 10811 10799 10787 10774 10760 10746 10730 10715 10698 10681 10663 10643 10621 10599 10579 10560
10941 10940 10942 10943 10943 10943 10943 10943 10941 10939 10935 10932 10928 10922 10916 10909 10904 10898 10891 10883 10873 10864 10856 10848 10839 10828 10817 10804 10792 10779 10767 10753 10737 10724 10710 10692 10673 10655 10634 10615 10594 10574 10555
10929 10930 10930 10931 10931 10932 10934 10933 10932 10930 10926 10924 10920 10914 10908 10902 10894 10889 10881 10873 10866 10856 10848 10841 10830 10820 10809 10797 10785 10774 10758 10744 10734 10721 10705 10686 10667 10649 10628 10609 10589 10567 10549
10916 10918 10918 10919 10921 10922 10925 10925 10923 10921 10917 10914 10911 10906 10900 10894 10887 10883 10874 10868 10860 10849 10840 10831 10823 10813 10803 10791 10780 10766 10754 10743 10729 10715 10698 10681 10663 10644 10624 10603 10584 10562 10546
10902 10904 10906 10908 10912 10913 10914 10913 10912 10910 10907 10903 10901 10897 10890 10887 10876 10873 10866 10860 10850 10840 10832 10823 10815 10805 10796 10784 10772 10762 10749 10736 10722 10708 10691 10675 10657 10637 10618 10597 10577 10559 10537
10889 10892 10895 10897 10899 10902 10902 10902 10901 10899 10896 10893 10889 10887 10880 10878 10868 10862 10855 10847 10839 10832 10824 10815 10807 10797 10788 10778 10767 10755 10742 10730 10716 10700 10685 10670 10651 10633 10611 10590 10571 10550 10531
10879 10880 10882 10885 10887 10892 10890 10889 10888 10886 10884 10882 10879 10874 10868 10867 10860 10851 10846 10839 10831 10824 10816 10806 10798 10789 10781 10770 10759 10747 10734 10723 10709 10694 10679 10662 10645 10627 10607 10585 10566 10546 10526
10863 10866 10869 10874 10880 10881 10877 10875 10875 10873 10871 10870 10868 10862 10856 10856 10850 10842 10837 10830 10821 10814 10804 10796 10790 10781 10774 10762 10750 10740 10726 10714 10700 10686 10671 10655 10638 10622 10601 10582 10561 10543 10526
10849 10852 10855 10859 10867 10868 10865 10865 10861 10858 10857 10857 10853 10848 10843 10846 10838 10833 10825 10821 10813 10803 10796 10787 10781 10772 10765 10756 10743 10731 10719 10706 10694 10677 10663 10649 10631 10614 10596 10578 10557 10539 10519
10835 10837 10840 10843 10850 10849 10846 10850 10850 10847 10845 10844 10840 10834 10830 10832 10828 10820 10816 10809 10800 10794 10788 10779 10771 10760 10754 10744 10735 10722 10712 10699 10684 10669 10656 10642 10626 10608 10587 10570 10554 10533 10513
10819 10824 10827 10829 10832 10834 10832 10832 10834 10834 10831 10830 10826 10819 10820 10819 10814 10809 10804 10798 10791 10784 10778 10773 10761 10749 10742 10732 10726 10715 10701 10688 10677 10662 10645 10634 10617 10598 10580 10564 10549 10529 10512
10804 10808 10811 10814 10817 10820 10819 10817 10822 10820 10818 10815 10809 10807 10810 10808 10805 10799 10791 10786 10778 10772 10765 10762 10751 10741 10734 10725 10715 10706 10695 10683 10670 10656 10640 10625 10609 10594 10576 10560 10545 10526 10509
10787 10792 10796 10798 10803 10803 10802 10803 10806 10803 10803 10800 10794 10793 10797 10795 10789 10782 10778 10773 10764 10759 10751 10745 10738 10734 10723 10715 10706 10696 10687 10673 10661 10648 10633 10617 10602 10587 10571 10558 10538 10522 10505
10770 10773 10778 10781 10785 10788 10787 10785 10787 10786 10785 10784 10783 10781 10777 10778 10777 10770 10765 10759 10750 10744 10738 10731 10727 10721 10712 10701 10694 10685 10676 10662 10650 10637 10625 10608 10596 10582 10567 10553 10536 10519 10503